www.pogodaiklimat.ru

Погода и климат >> Архив погоды >> Иран >> Khark


ПОГОДА в Khark

  • Прогноз погоды в Khark
  • Монитор погоды в Khark
  • Климат города

АРХИВ ПОГОДЫ в Khark

Время (UTC), дата Ветер
(напр.,м/с)
 
Видим.   Явления Облачность Т
(С)
Тd
(С)
f
(%)
Тe
(С)
Тes
(С)
Комфортность P
(гПа)
Po
(гПа)
Тmin
(С)
Tmax
(С)
R
(мм)
R24
(мм)
S
(см)
03 19.06 СЗ 10 10 км ясно +32.1 +22.5 57 +42 +42 опасность
перегрева
999.7 999.2 +31.7
06 19.06 СЗ 9 10 км ясно +34.4 +21.8 48 +43 +44 опасность
перегрева
1000.8 1000.3
09 19.06 С 9 10 км ясно +37.5 +22.8 43 +47 +49 опасность
перегрева
1000.2 999.7
15 19.06 СЗ 7 10 км ясно +34.2 +24.9 58 +47 +47 опасность
перегрева
999.6 999.1 +38.1
03 20.06 СЗ 11 10 км ясно +32.1 +21.6 54 +40 +40 очень
душно
1001.1 1000.6 +31.7
06 20.06 СЗ 7 10 км ясно +32.3 +23.4 59 +43 +47 опасность
перегрева
1001.3 1000.8
09 20.06 СЗ 7 10 км ясно +34.7 +23.0 51 +45 +51 опасность
перегрева
1001.2 1000.7
12 20.06 СЗ 8 10 км ясно +36.8 +23.0 45 +46 +48 опасность
перегрева
999.8 999.3
15 20.06 СЗ 8 10 км ясно +35.1 +24.1 53 +47 +47 опасность
перегрева
999.0 998.5 +37.6
03 21.06 СЗ 11 10 км ясно +31.3 +22.3 59 +40 +40 очень
душно
1000.5 1000.0 +31.1
06 21.06 СЗ 8 10 км ясно +32.2 +22.0 55 +41 +44 опасность
перегрева
1002.2 1001.7
09 21.06 СЗ 6 10 км ясно +35.1 +21.6 46 +43 +52 опасность
перегрева
1002.0 1001.5
12 21.06 З 8 10 км ясно +37.3 +22.0 41 +45 +47 опасность
перегрева
1000.6 1000.1
15 21.06 СЗ 7 10 км ясно +35.8 +21.6 44 +44 +44 опасность
перегрева
1000.1 999.6 +37.4
03 22.06 СЗ 8 10 км ясно +30.4 +22.3 62 +39 +40 очень
душно
1000.9 1000.4 +30.3
06 22.06 СЗ 7 10 км ясно +31.9 +22.0 56 +41 +45 опасность
перегрева
1001.7 1001.2
09 22.06 СЗ 6 10 км ясно +33.6 +22.9 54 +44 +52 опасность
перегрева
1002.8 1002.3
12 22.06 З 5 10 км ясно +34.8 +23.4 52 +46 +51 опасность
перегрева
999.7 999.2
15 22.06 З 3 10 км ясно +33.8 +23.3 54 +44 +45 опасность
перегрева
998.7 998.2 +35.3
03 23.06 СЗ 8 10 км ясно +30.8 +22.0 59 +39 +40 очень
душно
999.9 +30.4
06 23.06 СЗ 8 10 км ясно +31.9 +22.7 58 +42 +44 опасность
перегрева
1001.5 1001.0
09 23.06 СЗ 6 10 км ясно +33.6 +21.7 50 +42 +51 опасность
перегрева
1001.1 1000.6
12 23.06 СЗ 6 8000 м пыль ясно +34.8 +22.4 49 +44 +48 опасность
перегрева
999.5 999.0
15 23.06 З 4 10 км ясно +33.5 +22.7 53 +43 +43 опасность
перегрева
998.6 998.1 +35.1
03 24.06 СЗ 5 10 км ясно +30.2 +24.5 72 +43 +44 опасность
перегрева
1000.7 1000.2 +29.9
06 24.06 СЗ 4 10 км ясно +31.7 +24.0 64 +44 +53 опасность
перегрева
1001.4 1000.9
09 24.06 СЗ 5 10 км ясно +33.9 +23.3 54 +44 +56 опасность
перегрева
1001.8 1001.3
12 24.06 СЗ 4 10 км ясно +34.6 +22.2 49 +44 +51 опасность
перегрева
1000.7 1000.2
15 24.06 З 4 10 км ясно +33.3 +20.5 47 +40 +40 очень
душно
999.8 999.3 +35.5
03 25.06 В 2 6000 м дымка ясно +29.2 +27.4 90 +47 +48 опасность
перегрева
1000.5 1000.0 +26.2
06 25.06 ЮВ 5 6000 м дымка ясно +31.1 +27.2 80 +49 +57 опасность
перегрева
1001.3 1000.8
09 25.06 Ю 3 7000 м мгла ясно +36.2 +24.9 52 +49 +67 опасность
перегрева
1000.9 1000.4
12 25.06 З 4 10 км ясно +34.2 +28.7 73 +57 +64 опасность
перегрева
999.3 998.8
15 25.06 ЮЗ 4 10 км ясно +34.0 +23.6 55 +45 +45 опасность
перегрева
998.7 998.2 +38.3

 

Местоположение метеостанции Khark (Иран): широта 29.26 долгота 50.32 высота над уровнем моря 3 м.

В архиве по умолчанию представлена погода в Khark за последнюю неделю. Архивные данные за месяц целиком и за предыдущие месяцы, начиная с января 2011 года, Вы можете получить, выбрав интересующий диапазон дат из раскрывающегося списка и нажав кнопку "Ввод!".


*Определитесь, кто Вы:
робот инопланетянин человек

Внимание! Время в таблицах - всемирное. Для получения местного времени необходимо прибавить поправку, которая в Khark равна 3.5 ч.

Смотрите также архив погоды в соседних городах и на ближайших метеорологических станциях:

Погода в Bushehr Airport (Иран) (59 км)
Погода в Bushehr (Иран) (62 км)
Погода в Gach Saran (Иран) (137 км)
Погода в Nuwasib (Кувейт) (175 км)
Погода в Umm-Al-Maradim (Кувейт) (175 км)
Погода в Omidieh (Иран) (179 км)
Погода в Fao (Ирак) (193 км)
Погода в Bubiyan (Кувейт) (196 км)
Погода в Yasuj (Иран) (198 км)
Погода в Failaka Island (Кувейт) (199 км)

Пояснения к столбцам:

Ветер - указаны скорость ветра в м/с - средняя за 10 мин, порывы в срок и между сроками (в фигурных скобках) и направление, откуда дует ветер: С - северный, СВ - северо-восточный, В - восточный, ЮВ - юго-восточный, Ю - южный, ЮЗ - юго-западный, З - западный, СЗ - северо-западный.
Видимость - горизонтальная дальность видимости в метрах или километрах. При видимости от 1 до 10 км при отсутствии осадков обычно наблюдается дымка, при ухудшении видимости до 1 км и менее - туман. В сухую погоду видимость может ухудшаться дымом, пылью или мглою.
Явления - указаны атмосферные явления, наблюдавшиеся в срок или в последний час перед сроком; фигурными скобками обозначены явления, наблюдавшиеся между сроками (за 1-3 часа до срока); квадратными скобками обозначены град или гололедные отложения с указанием их диаметра в мм.
Облачность - указаны через наклонную черту общая и нижняя облачность в баллах и высота нижней границы облаков в метрах; квадратными скобками обозначены формы облаков: Ci - перистые, Cs - перисто-слоистые, Cc - перисто-кучевые, Ac - высококучевые, As - высокослоистые, Sc - слоисто-кучевые, Ns - слоисто-дождевые, Cu - кучевые, Cb - кучево-дождевые. Подробнее классификацию облаков см. в Атласе облаков (PDF).
T - Температура воздуха - температура, измеренная на высоте 2 м над землей.
Td - Температура точки росы - температура, при понижении до которой содержащийся в воздухе водяной пар достигнет насыщения.
f - Относительная влажность воздуха - влажноcть воздуха, измеренная на высоте 2 м над землей.
Te - Эффективная температура - температура, которую ощущает одетый по сезону человек в тени. Характеристика душности погоды. При расчете учитывается влияние влажности воздуха и скорости ветра на теплоощущения человека.
Tes - Эффективная температура на солнце - температура, которую ощущает человек, с поправкой на солнечный нагрев. Характеристика знойности погоды. Зависит от высоты солнца над горизонтом, облачности и скорости ветра. Ночью, в пасмурную погоду, а также при ветре 12 м/с и более поправка равна нулю.
P - Атмосферное давление - приведенное к уровню моря атмосферное давление.
Po - Атмосферное давление - измеренное на уровне метеостанции атмосферное давление.
Tmin - Минимальная температура - минимум температуры воздуха на высоте 2 м над землей.
Tmax - Максимальная температура - максимум температуры воздуха на высоте 2 м над землей.
R - Количество осадков - Количество выпавших осадков за период времени, мм. При наведении курсора мыши на число - период времени, за который выпало указанное количество осадков.
R24 - Количество осадков - Количество выпавших осадков за 24 часа, мм.
S - Снежный покров - Высота снежного покрова, см. При наведении курсора мыши на число - состояние снежного покрова и степень покрытия местности в баллах.